User: anonymous   Login
Location: Unspecified
(0.0000°N, 0.0000°E)
Time: 14:21:24
(UTC+02:00)
Language:

Iridium 33 - Orbit

View from above orbital plane
View from above orbital plane
View from above satellite
View from above satellite

Ground track
Ground track

The orbit data is extracted from the following two-line orbital elements,

1 24946U 97051C   15213.52146106  .00000152  00000-0  47844-4 0  9993
2 24946 086.3868 213.6542 0006615 331.7553 139.4390 14.33400802935814
Epoch (UTC): 01 August 2015 12:30:54
Eccentricity: 0.0006615
inclination: 86.3868°
perigee height: 775 km
apogee height: 785 km
right ascension of ascending node: 213.6542°
argument of perigee: 331.7553°
revolutions per day: 14.33400802
mean anomaly at epoch: 139.4390°
orbit number at epoch: 93581

The dashed part of the orbit path shows where the satellite is in the earth's shadow,  

DLR